Weather History for Lexington, NE

Change the Weather History Date:

Sunday, December 15, 2013

  Actual Average Record
Temperature  
Mean Temperature 42 °F -  
Max Temperature 58 °F 38 °F 68 °F (2002)
Min Temperature 26 °F 16 °F -7 °F (2008)
Degree Days  
Heating Degree Days 23    
Moisture  
Dew Point 24 °F    
Average Humidity 57    
Maximum Humidity 82    
Minimum Humidity 28    
Precipitation  
Precipitation 0.00 in - - ()
Sea Level Pressure  
Sea Level Pressure 30.01 in    
Wind  
Wind Speed 8 mph (WNW)    
Max Wind Speed 18 mph    
Max Gust Speed 25 mph    
Visibility 10 miles    
Events      
Averages and records for this station are not official NWS values.
T = Trace of Precipitation, MM = Missing Value Source: NWS Daily Summary

Daily Weather History Graph

Daily Weather History Graph

Search for Another Location

Airport:

Trip Planner

Search our weather history database for the weather conditions in past years. The results will help you decide how hot, cold, wet, or windy it might be!

Date:

Astronomy

Dec. 15, 2013 Rise Set
Actual Time 7:56 AM CST 5:12 PM CST
Civil Twilight 7:25 AM CST 5:43 PM CST
Nautical Twilight 6:50 AM CST 6:17 PM CST
Astronomical Twilight 6:17 AM CST 6:51 PM CST
Moon 4:18 PM CST (12/15) 6:13 AM CST (12/15)
Length of Visible Light 10h 17m
Length of Day
9h 15m
Waxing Gibbous, 98% of the Moon is Illuminated
Dec 15
Waxing Gibbous
Dec 17
Full
Dec 25
Last Quarter
Jan 1
New
Jan 7
First Quarter

Hourly Weather History & Observations

Time (CST) Temp. Windchill Dew Point Humidity Pressure Visibility Wind Dir Wind Speed Gust Speed Precip Events Conditions
12:15 AM 26.2 °F 19.6 °F 21.6 °F 82% 30.09 in 10.0 mi NW 5.8 mph - N/A   Overcast
12:35 AM 28.2 °F 21.0 °F 23.0 °F 81% 30.07 in 10.0 mi West 6.9 mph - N/A   Overcast
12:55 AM 32.5 °F 24.8 °F 25.3 °F 75% 30.07 in 10.0 mi West 9.2 mph - N/A   Overcast
1:15 AM 36.5 °F 29.7 °F 25.3 °F 64% 30.07 in 10.0 mi West 9.2 mph - N/A   Overcast
1:35 AM 36.1 °F 29.9 °F 25.0 °F 64% 30.07 in 10.0 mi West 8.1 mph - N/A   Overcast
1:55 AM 35.2 °F 30.3 °F 24.8 °F 66% 30.06 in 10.0 mi West 5.8 mph - N/A   Overcast
2:15 AM 31.8 °F 28.5 °F 23.5 °F 71% 30.06 in 10.0 mi NNW 3.5 mph - N/A   Overcast
2:35 AM 30.2 °F 24.3 °F 22.8 °F 74% 30.06 in 10.0 mi NNW 5.8 mph - N/A   Overcast
2:55 AM 30.0 °F 24.1 °F 22.8 °F 75% 30.06 in 10.0 mi NW 5.8 mph - N/A   Overcast
3:15 AM 29.1 °F 23.0 °F 22.3 °F 76% 30.06 in 10.0 mi WNW 5.8 mph - N/A   Scattered Clouds
3:35 AM 26.4 °F - 21.0 °F 80% 30.06 in 10.0 mi Calm Calm - N/A   Scattered Clouds
3:55 AM 30.2 °F - 23.0 °F 75% 30.06 in 10.0 mi Calm Calm - N/A   Overcast
4:15 AM 30.2 °F 25.4 °F 22.8 °F 74% 30.05 in 10.0 mi WNW 4.6 mph - N/A   Overcast
4:35 AM 30.2 °F 23.4 °F 23.4 °F 76% 30.04 in 10.0 mi West 6.9 mph - N/A   Overcast
4:55 AM 35.6 °F 29.9 °F 25.9 °F 68% 30.04 in 10.0 mi WNW 6.9 mph - N/A   Overcast
5:15 AM 33.8 °F 26.4 °F 25.0 °F 70% 30.04 in 10.0 mi WNW 9.2 mph - N/A   Overcast
5:35 AM 35.1 °F 28.6 °F 25.2 °F 67% 30.04 in 10.0 mi WNW 8.1 mph - N/A   Overcast
5:55 AM 35.1 °F 28.6 °F 25.7 °F 69% 30.04 in 10.0 mi West 8.1 mph - N/A   Overcast
6:15 AM 35.4 °F 28.4 °F 25.2 °F 66% 30.03 in 10.0 mi WNW 9.2 mph - N/A   Overcast
6:35 AM 34.3 °F 27.0 °F 24.8 °F 68% 30.04 in 10.0 mi West 9.2 mph - N/A   Overcast
6:55 AM 35.8 °F 30.1 °F 24.8 °F 64% 30.04 in 10.0 mi WNW 6.9 mph - N/A   Mostly Cloudy
7:15 AM 35.8 °F - 24.8 °F 64% 30.04 in 10.0 mi Calm Calm - N/A   Scattered Clouds
7:35 AM 33.4 °F - 23.5 °F 67% 30.03 in 10.0 mi Calm Calm - N/A   Clear
7:55 AM 34.9 °F 29.9 °F 24.4 °F 66% 30.03 in 10.0 mi West 5.8 mph - N/A   Clear
8:15 AM 33.8 °F 27.0 °F 24.6 °F 69% 30.03 in 10.0 mi WNW 8.1 mph - N/A   Clear
8:35 AM 35.4 °F 29.7 °F 24.8 °F 65% 30.03 in 10.0 mi WNW 6.9 mph - N/A   Clear
8:55 AM 35.8 °F 28.8 °F 24.8 °F 64% 30.04 in 10.0 mi WNW 9.2 mph - N/A   Clear
9:15 AM 35.8 °F 28.8 °F 25.2 °F 65% 30.04 in 10.0 mi WNW 9.2 mph - N/A   Scattered Clouds
9:35 AM 39.6 °F 34.7 °F 26.1 °F 58% 30.04 in 10.0 mi West 6.9 mph - N/A   Mostly Cloudy
9:55 AM 43.0 °F 36.0 °F 25.5 °F 50% 30.04 in 10.0 mi West 13.8 mph 18.4 mph N/A   Overcast
10:15 AM 43.7 °F 38.6 °F 25.0 °F 48% 30.04 in 10.0 mi WNW 9.2 mph - N/A   Overcast
10:35 AM 44.8 °F 38.3 °F 24.8 °F 46% 30.04 in 10.0 mi WNW 13.8 mph 19.6 mph N/A   Overcast
10:55 AM 45.5 °F 39.9 °F 25.0 °F 45% 30.03 in 10.0 mi WNW 11.5 mph - N/A   Overcast
11:15 AM 47.1 °F - 24.8 °F 42% 30.03 in 10.0 mi West 11.5 mph - N/A   Overcast
11:35 AM 47.8 °F - 25.0 °F 41% 30.02 in 10.0 mi West 13.8 mph 17.3 mph N/A   Mostly Cloudy
11:55 AM 51.1 °F - 24.4 °F 35% 30.00 in 10.0 mi West 17.3 mph 21.9 mph N/A   Scattered Clouds
12:15 PM 52.7 °F - 24.1 °F 33% 29.99 in 10.0 mi West 16.1 mph 21.9 mph N/A   Clear
12:35 PM 54.5 °F - 24.3 °F 31% 29.98 in 10.0 mi WNW 16.1 mph - N/A   Clear
12:55 PM 55.4 °F - 24.6 °F 30% 29.97 in 10.0 mi WNW 15.0 mph 19.6 mph N/A   Clear
1:15 PM 56.7 °F - 24.6 °F 29% 29.97 in 10.0 mi West 15.0 mph - N/A   Clear
1:35 PM 57.9 °F - 24.4 °F 28% 29.97 in 10.0 mi West 18.4 mph 23.0 mph N/A   Scattered Clouds
1:55 PM 55.4 °F - 24.4 °F 30% 29.96 in 10.0 mi WNW 15.0 mph - N/A   Clear
2:15 PM 56.8 °F - 24.6 °F 29% 29.96 in 10.0 mi WNW 18.4 mph 21.9 mph N/A   Clear
2:35 PM 58.1 °F - 24.6 °F 28% 29.96 in 10.0 mi West 18.4 mph 25.3 mph N/A   Clear
2:55 PM 55.9 °F - 24.3 °F 29% 29.96 in 10.0 mi West 17.3 mph 25.3 mph N/A   Clear
3:15 PM 56.3 °F - 24.4 °F 29% 29.95 in 10.0 mi West 16.1 mph 19.6 mph N/A   Clear
3:35 PM 56.3 °F - 24.6 °F 29% 29.95 in 10.0 mi WNW 13.8 mph 20.7 mph N/A   Clear
3:55 PM 55.9 °F - 24.6 °F 30% 29.95 in 10.0 mi West 13.8 mph - N/A   Clear
4:15 PM 55.4 °F - 24.4 °F 30% 29.95 in 10.0 mi West 11.5 mph - N/A   Clear
4:35 PM 52.9 °F - 23.9 °F 32% 29.95 in 10.0 mi West 10.4 mph - N/A   Clear
4:55 PM 50.9 °F - 23.9 °F 35% 29.96 in 10.0 mi West 10.4 mph - N/A   Clear
5:15 PM 46.0 °F 41.4 °F 23.7 °F 42% 29.96 in 10.0 mi West 9.2 mph - N/A   Clear
5:35 PM 42.1 °F 37.1 °F 22.8 °F 46% 29.96 in 10.0 mi West 8.1 mph - N/A   Clear
5:55 PM 39.0 °F 32.3 °F 22.5 °F 52% 29.96 in 10.0 mi West 10.4 mph - N/A   Clear
6:15 PM 40.1 °F 33.6 °F 23.4 °F 51% 29.96 in 10.0 mi West 10.4 mph - N/A   Clear
6:35 PM 38.1 °F 32.3 °F 22.8 °F 54% 29.97 in 10.0 mi West 8.1 mph - N/A   Clear
6:55 PM 36.9 °F 30.1 °F 23.0 °F 57% 29.97 in 10.0 mi West 9.2 mph - N/A   Clear
7:15 PM 35.4 °F 29.7 °F 22.1 °F 58% 29.97 in 10.0 mi West 6.9 mph - N/A   Clear
7:35 PM 31.6 °F 28.3 °F 20.3 °F 63% 29.97 in 10.0 mi WNW 3.5 mph - N/A   Clear
7:55 PM 32.5 °F 29.3 °F 21.6 °F 64% 29.97 in 10.0 mi NW 3.5 mph - N/A   Clear
8:15 PM 31.3 °F 26.6 °F 20.7 °F 65% 29.97 in 10.0 mi NNW 4.6 mph - N/A   Clear
8:35 PM 30.6 °F 24.7 °F 20.3 °F 66% 29.97 in 10.0 mi NW 5.8 mph - N/A   Clear
8:55 PM 29.3 °F 22.3 °F 20.1 °F 69% 29.97 in 10.0 mi NW 6.9 mph - N/A   Clear
9:15 PM 28.6 °F 22.4 °F 20.1 °F 71% 29.98 in 10.0 mi NW 5.8 mph - N/A   Clear
9:35 PM 28.4 °F 21.2 °F 19.9 °F 71% 29.98 in 10.0 mi NNW 6.9 mph - N/A   Clear
9:55 PM 29.1 °F 22.1 °F 20.7 °F 71% 29.98 in 10.0 mi NW 6.9 mph - N/A   Clear
10:15 PM 28.2 °F 22.0 °F 21.0 °F 74% 29.99 in 10.0 mi NW 5.8 mph - N/A   Clear
10:35 PM 27.3 °F 20.9 °F 21.2 °F 78% 29.99 in 10.0 mi NW 5.8 mph - N/A   Clear
10:55 PM 28.0 °F 24.2 °F 21.7 °F 77% 29.99 in 10.0 mi West 3.5 mph - N/A   Clear
11:15 PM 31.6 °F 27.0 °F 22.5 °F 69% 29.99 in 10.0 mi WNW 4.6 mph - N/A   Clear
11:35 PM 30.2 °F 24.3 °F 22.1 °F 72% 29.99 in 10.0 mi WNW 5.8 mph - N/A   Clear
11:55 PM 30.2 °F - 22.5 °F 73% 29.99 in 10.0 mi Calm Calm - N/A   Clear